Regional Weather Roundup
Issued by NWS Sioux Falls, SD

Home | Current Version | Previous Version | Text Only | Print | Product List | Glossary On
Versions: 1 2 3 4 5 6 7 8 9 10 11 12 13 14 15 16 17 18 19 20 21 22 23 24 25 26 27 28 29 30 31 32 33 34 35 36 37 38 39 40 41 42 43 44 45 46 47 48 49 50
000
ASUS43 KFSD 232002
RWRFSD

WEATHER ROUNDUP FOR SE SOUTH DAKOTA/SW MINNESOTA/NW IOWA
NATIONAL WEATHER SERVICE SIOUX FALLS SD
300 PM CDT THU MAR 23 2017

NOTE: "FAIR" INDICATES FEW OR NO CLOUDS BELOW 12,000 FEET WITH NO
SIGNIFICANT WEATHER AND OR OBSTRUCTIONS TO VISIBILITY.


SDZ038>040-050-052>070-232100-
SOUTHEAST SOUTH DAKOTA

CITY           SKY/WX    TMP DP  RH WIND       PRES   REMARKS
BROOKINGS      CLOUDY    39  37  92 SE13      29.72F FOG
CHAMBERLAIN    CLOUDY    56  47  71 SE9       29.63F
HURON          CLOUDY    46  36  68 SE15      29.69F
MADISON        CLOUDY    39  39 100 SE12      29.72F
MITCHELL       CLOUDY    50  40  68 SE12      29.68F
SIOUX FALLS    CLOUDY    48  41  76 S15       29.73F
WINNER         CLOUDY    56  47  71 S10       29.62F
YANKTON        CLOUDY    57  46  67 SE14      29.67F
$$

MNZ071-072-080-081-089-090-097-098-232100-
SOUTHWEST MINNESOTA

CITY           SKY/WX    TMP DP  RH WIND       PRES   REMARKS
FAIRMONT       CLOUDY    39  32  76 SE21      29.83F
JACKSON        CLOUDY    39  32  75 SE14      29.81F
MARSHALL       CLOUDY    42  33  70 S16       29.77F
MONTEVIDEO     CLOUDY    37  34  87 S21       29.79F
PIPESTONE      CLOUDY    39  34  81 S13G22    29.74F
REDWOOD FALLS  CLOUDY    42  30  62 SE23G29   29.82F
TRACY          CLOUDY    42  34  74 S15       29.77F
WINDOM         CLOUDY    41  32  70 SE17G23   29.80F
WORTHINGTON    CLOUDY    40  35  83 SE16      29.78F
$$

IAZ001>003-012>014-020>022-031-032-NEZ013-014-SDZ071-232100-
NORTHWEST IOWA

CITY           SKY/WX    TMP DP  RH WIND       PRES   REMARKS
CHEROKEE       CLOUDY    50  38  62 S17G23    29.82R
DENISON        CLOUDY    57  43  58 S9G17     29.81R
ESTHERVILLE    CLOUDY    37  34  89 SE28G35   29.79F
LE MARS        CLOUDY    54  39  58 SE17G24   29.75F
ORANGE CITY    CLOUDY    50  41  71 SE10G20   29.77S
SHELDON        CLOUDY    45  45 100 SE21G28   29.79R
SIOUX CITY     TSTM      53  42  66 SE16      29.73F
SPENCER        CLOUDY    43  36  76 SE24G33   29.81F
STORM LAKE     CLOUDY    48  36  61 SE18G26   29.84R
$$

ABBREVIATIONS USED IN REMARKS
   TC - TEMPERATURE IN CELSIUS
  WCI - WIND CHILL INDEX
   HX - HEAT INDEX
  VSB - VISIBILITY




USA.gov is the U.S. government's official web portal to all federal, state and local government web resources and services.